Location: Aghk�ilisa
(40.0189°N, 45.0097°E)
Time: 00:51:47
(UTC+00:00)

STARLINK-60 - Pass Details

Date: 21 October 2019
Orbit: 419 x 428 km, 53.0° (Epoch: 14 November)

Event Time Altitude Azimuth Distance (km) Brightness Sun altitude
Rises 15:06:56 0° 316° (NW) 2,387 7.5 -11.1°
Reaches altitude 10° 15:09:16 10° 330° (NNW) 1,522 6.2 -11.6°
Maximum altitude 15:12:11 26° 29° (NNE) 894 4.4 -12.1°
Enters shadow 15:13:34 20° 66° (ENE) 1,068 4.5 -12.4°
